<?xml version="1.0" encoding="UTF-8" standalone="no" ?>
<gpx xmlns="http://www.topografix.com/GPX/1/1" xmlns:xsi="http://www.w3.org/2001/XMLSchema-instance" xsi:schemaLocation="http://www.topografix.com/GPX/1/1 http://www.topografix.com/GPX/1/1/gpx.xsd" version="1.1" creator="VisuGPX - https://www.visugpx.com">
  <metadata>
    <name>TOUR DE LA FORET DE FONTAINEBLEAU</name>
    <desc><![CDATA[BELLE BALLADE DANS LE SUD DE LA FORET AU DEPART DE BLEAU VERS COQUIBUS]]></desc>
  </metadata>
  <trk>
    <name><![CDATA[TOUR-FONTAINEBLEAU2]]></name>
    <trkseg>
      <trkpt lat="48.4025" lon="2.69674">
        <ele>78.2</ele>
        <time>2016-04-22T07:14:40Z</time>
      </trkpt>
      <trkpt lat="48.40392" lon="2.70001">
        <ele>84.1</ele>
        <time>2016-04-22T07:14:40Z</time>
      </trkpt>
      <trkpt lat="48.39865" lon="2.70162">
        <ele>74.1</ele>
        <time>2016-04-22T07:14:40Z</time>
      </trkpt>
      <trkpt lat="48.39701" lon="2.70208">
        <ele>81.2</ele>
        <time>2016-04-22T07:14:40Z</time>
      </trkpt>
      <trkpt lat="48.38946" lon="2.70455">
        <ele>97.1</ele>
        <time>2016-04-22T07:14:40Z</time>
      </trkpt>
      <trkpt lat="48.3886" lon="2.70652">
        <ele>102</ele>
        <time>2016-04-22T07:14:40Z</time>
      </trkpt>
      <trkpt lat="48.38829" lon="2.70845">
        <ele>105.8</ele>
        <time>2016-04-22T07:14:40Z</time>
      </trkpt>
      <trkpt lat="48.38845" lon="2.71029">
        <ele>107.2</ele>
        <time>2016-04-22T07:14:40Z</time>
      </trkpt>
      <trkpt lat="48.38808" lon="2.71212">
        <ele>110.4</ele>
        <time>2016-04-22T07:14:40Z</time>
      </trkpt>
      <trkpt lat="48.3872" lon="2.71176">
        <ele>126</ele>
        <time>2016-04-22T07:14:40Z</time>
      </trkpt>
      <trkpt lat="48.38756" lon="2.7101">
        <ele>125.6</ele>
        <time>2016-04-22T07:14:40Z</time>
      </trkpt>
      <trkpt lat="48.38717" lon="2.70854">
        <ele>123.2</ele>
        <time>2016-04-22T07:14:40Z</time>
      </trkpt>
      <trkpt lat="48.38701" lon="2.70556">
        <ele>123.8</ele>
        <time>2016-04-22T07:14:40Z</time>
      </trkpt>
      <trkpt lat="48.38561" lon="2.70565">
        <ele>126.6</ele>
        <time>2016-04-22T07:14:40Z</time>
      </trkpt>
      <trkpt lat="48.38637" lon="2.69844">
        <ele>89.4</ele>
        <time>2016-04-22T07:14:40Z</time>
      </trkpt>
      <trkpt lat="48.38677" lon="2.69224">
        <ele>80.5</ele>
        <time>2016-04-22T07:14:40Z</time>
      </trkpt>
      <trkpt lat="48.38433" lon="2.69197">
        <ele>100.3</ele>
        <time>2016-04-22T07:14:40Z</time>
      </trkpt>
      <trkpt lat="48.38406" lon="2.69578">
        <ele>114.9</ele>
        <time>2016-04-22T07:14:40Z</time>
      </trkpt>
      <trkpt lat="48.38372" lon="2.69771">
        <ele>109.8</ele>
        <time>2016-04-22T07:14:40Z</time>
      </trkpt>
      <trkpt lat="48.38323" lon="2.69784">
        <ele>106.2</ele>
        <time>2016-04-22T07:14:40Z</time>
      </trkpt>
      <trkpt lat="48.38262" lon="2.70427">
        <ele>120</ele>
        <time>2016-04-22T07:14:40Z</time>
      </trkpt>
      <trkpt lat="48.37826" lon="2.70781">
        <ele>135.5</ele>
        <time>2016-04-22T07:14:40Z</time>
      </trkpt>
      <trkpt lat="48.37671" lon="2.7062">
        <ele>136.6</ele>
        <time>2016-04-22T07:14:40Z</time>
      </trkpt>
      <trkpt lat="48.37686" lon="2.70464">
        <ele>136.4</ele>
        <time>2016-04-22T07:14:40Z</time>
      </trkpt>
      <trkpt lat="48.376" lon="2.70491">
        <ele>134.6</ele>
        <time>2016-04-22T07:14:40Z</time>
      </trkpt>
      <trkpt lat="48.37558" lon="2.70345">
        <ele>133.1</ele>
        <time>2016-04-22T07:14:40Z</time>
      </trkpt>
      <trkpt lat="48.37427" lon="2.70285">
        <ele>130.3</ele>
        <time>2016-04-22T07:14:40Z</time>
      </trkpt>
      <trkpt lat="48.37283" lon="2.70106">
        <ele>129.1</ele>
        <time>2016-04-22T07:14:40Z</time>
      </trkpt>
      <trkpt lat="48.36109" lon="2.70198">
        <ele>136.8</ele>
        <time>2016-04-22T07:14:40Z</time>
      </trkpt>
      <trkpt lat="48.36042" lon="2.70303">
        <ele>133.9</ele>
        <time>2016-04-22T07:14:40Z</time>
      </trkpt>
      <trkpt lat="48.35968" lon="2.70478">
        <ele>130.5</ele>
        <time>2016-04-22T07:14:40Z</time>
      </trkpt>
      <trkpt lat="48.35974" lon="2.70648">
        <ele>128.9</ele>
        <time>2016-04-22T07:14:40Z</time>
      </trkpt>
      <trkpt lat="48.35999" lon="2.70712">
        <ele>124.3</ele>
        <time>2016-04-22T07:14:40Z</time>
      </trkpt>
      <trkpt lat="48.35895" lon="2.70817">
        <ele>130.7</ele>
        <time>2016-04-22T07:14:40Z</time>
      </trkpt>
      <trkpt lat="48.35874" lon="2.70932">
        <ele>126.7</ele>
        <time>2016-04-22T07:14:40Z</time>
      </trkpt>
      <trkpt lat="48.35791" lon="2.70941">
        <ele>130.6</ele>
        <time>2016-04-22T07:14:40Z</time>
      </trkpt>
      <trkpt lat="48.35803" lon="2.7106">
        <ele>129.1</ele>
      </trkpt>
      <trkpt lat="48.35782" lon="2.71061">
        <ele>129.8</ele>
        <time>2016-04-22T07:14:40Z</time>
      </trkpt>
      <trkpt lat="48.35781" lon="2.71096">
        <ele>129.9</ele>
        <time>2016-04-22T07:14:40Z</time>
      </trkpt>
      <trkpt lat="48.35774" lon="2.7113">
        <ele>130.1</ele>
        <time>2016-04-22T07:14:40Z</time>
      </trkpt>
      <trkpt lat="48.35705" lon="2.71123">
        <ele>133.5</ele>
        <time>2016-04-22T07:14:40Z</time>
      </trkpt>
      <trkpt lat="48.35653" lon="2.71028">
        <ele>139.5</ele>
        <time>2016-04-22T07:14:40Z</time>
      </trkpt>
      <trkpt lat="48.35608" lon="2.70932">
        <ele>139.9</ele>
        <time>2016-04-22T07:14:40Z</time>
      </trkpt>
      <trkpt lat="48.35513" lon="2.70754">
        <ele>138</ele>
      </trkpt>
      <trkpt lat="48.35456" lon="2.70675">
        <ele>136.7</ele>
      </trkpt>
      <trkpt lat="48.35414" lon="2.7063">
        <ele>135.5</ele>
        <time>2016-04-22T07:14:40Z</time>
      </trkpt>
      <trkpt lat="48.35345" lon="2.70631">
        <ele>137</ele>
      </trkpt>
      <trkpt lat="48.35001" lon="2.70357">
        <ele>127.3</ele>
      </trkpt>
      <trkpt lat="48.35005" lon="2.70304">
        <ele>126</ele>
      </trkpt>
      <trkpt lat="48.35127" lon="2.69973">
        <ele>132.9</ele>
      </trkpt>
      <trkpt lat="48.35359" lon="2.69564">
        <ele>137.6</ele>
      </trkpt>
      <trkpt lat="48.3545" lon="2.69481">
        <ele>133.9</ele>
      </trkpt>
      <trkpt lat="48.35391" lon="2.69185">
        <ele>135</ele>
        <time>2016-04-22T07:14:40Z</time>
      </trkpt>
      <trkpt lat="48.35328" lon="2.68723">
        <ele>130.9</ele>
      </trkpt>
      <trkpt lat="48.35233" lon="2.68166">
        <ele>130.2</ele>
        <time>2016-04-22T07:14:40Z</time>
      </trkpt>
      <trkpt lat="48.35147" lon="2.67722">
        <ele>129.1</ele>
        <time>2016-04-22T07:14:40Z</time>
      </trkpt>
      <trkpt lat="48.35025" lon="2.66887">
        <ele>130.9</ele>
        <time>2016-04-22T07:14:40Z</time>
      </trkpt>
      <trkpt lat="48.34727" lon="2.66891">
        <ele>133.8</ele>
        <time>2016-04-22T07:14:40Z</time>
      </trkpt>
      <trkpt lat="48.34379" lon="2.66839">
        <ele>133.1</ele>
      </trkpt>
      <trkpt lat="48.3437" lon="2.66691">
        <ele>133.8</ele>
      </trkpt>
      <trkpt lat="48.3443" lon="2.66289">
        <ele>133.4</ele>
      </trkpt>
      <trkpt lat="48.34452" lon="2.66286">
        <ele>134.1</ele>
        <time>2016-04-22T07:14:40Z</time>
      </trkpt>
      <trkpt lat="48.3455" lon="2.66071">
        <ele>128.2</ele>
      </trkpt>
      <trkpt lat="48.34646" lon="2.66018">
        <ele>126.8</ele>
      </trkpt>
      <trkpt lat="48.3466" lon="2.65987">
        <ele>126</ele>
        <time>2016-04-22T07:14:40Z</time>
      </trkpt>
      <trkpt lat="48.34682" lon="2.66008">
        <ele>126.8</ele>
      </trkpt>
      <trkpt lat="48.34684" lon="2.65951">
        <ele>126.7</ele>
      </trkpt>
      <trkpt lat="48.34677" lon="2.6571">
        <ele>130.4</ele>
      </trkpt>
      <trkpt lat="48.34684" lon="2.65572">
        <ele>131.5</ele>
        <time>2016-04-22T07:14:40Z</time>
      </trkpt>
      <trkpt lat="48.34663" lon="2.6535">
        <ele>130.5</ele>
      </trkpt>
      <trkpt lat="48.34604" lon="2.65234">
        <ele>128.3</ele>
      </trkpt>
      <trkpt lat="48.34618" lon="2.65175">
        <ele>127.9</ele>
        <time>2016-04-22T07:14:40Z</time>
      </trkpt>
      <trkpt lat="48.34682" lon="2.64926">
        <ele>130.1</ele>
      </trkpt>
      <trkpt lat="48.34646" lon="2.64635">
        <ele>126.8</ele>
      </trkpt>
      <trkpt lat="48.34679" lon="2.64242">
        <ele>130.2</ele>
        <time>2016-04-22T07:14:40Z</time>
      </trkpt>
      <trkpt lat="48.35105" lon="2.64199">
        <ele>127</ele>
        <time>2016-04-22T07:14:40Z</time>
      </trkpt>
      <trkpt lat="48.35214" lon="2.64036">
        <ele>132.1</ele>
        <time>2016-04-22T07:14:40Z</time>
      </trkpt>
      <trkpt lat="48.36856" lon="2.63744">
        <ele>134.3</ele>
        <time>2016-04-22T07:14:40Z</time>
      </trkpt>
      <trkpt lat="48.37551" lon="2.62327">
        <ele>140.4</ele>
        <time>2016-04-22T07:14:40Z</time>
      </trkpt>
      <trkpt lat="48.37528" lon="2.58972">
        <ele>131.6</ele>
        <time>2016-04-22T07:14:40Z</time>
      </trkpt>
      <trkpt lat="48.37514" lon="2.58339">
        <ele>132.4</ele>
        <time>2016-04-22T07:14:40Z</time>
      </trkpt>
      <trkpt lat="48.37462" lon="2.57869">
        <ele>127.7</ele>
        <time>2016-04-22T07:14:40Z</time>
      </trkpt>
      <trkpt lat="48.37684" lon="2.57961">
        <ele>127.8</ele>
        <time>2016-04-22T07:14:40Z</time>
      </trkpt>
      <trkpt lat="48.37755" lon="2.57377">
        <ele>124.1</ele>
        <time>2016-04-22T07:14:40Z</time>
      </trkpt>
      <trkpt lat="48.37684" lon="2.57043">
        <ele>120</ele>
        <time>2016-04-22T07:14:40Z</time>
      </trkpt>
      <trkpt lat="48.3775" lon="2.56829">
        <ele>122.2</ele>
        <time>2016-04-22T07:14:40Z</time>
      </trkpt>
      <trkpt lat="48.37858" lon="2.56866">
        <ele>121.1</ele>
        <time>2016-04-22T07:14:40Z</time>
      </trkpt>
      <trkpt lat="48.38011" lon="2.56694">
        <ele>119.5</ele>
        <time>2016-04-22T07:14:40Z</time>
      </trkpt>
      <trkpt lat="48.38035" lon="2.56546">
        <ele>116.2</ele>
        <time>2016-04-22T07:14:40Z</time>
      </trkpt>
      <trkpt lat="48.38113" lon="2.56357">
        <ele>115.8</ele>
        <time>2016-04-22T07:14:40Z</time>
      </trkpt>
      <trkpt lat="48.38058" lon="2.5606">
        <ele>109.8</ele>
        <time>2016-04-22T07:14:40Z</time>
      </trkpt>
      <trkpt lat="48.38137" lon="2.558">
        <ele>112.4</ele>
        <time>2016-04-22T07:14:40Z</time>
      </trkpt>
      <trkpt lat="48.38235" lon="2.55575">
        <ele>115.8</ele>
      </trkpt>
      <trkpt lat="48.38294" lon="2.54923">
        <ele>117.8</ele>
        <time>2016-04-22T07:14:40Z</time>
      </trkpt>
      <trkpt lat="48.38302" lon="2.54805">
        <ele>116.4</ele>
        <time>2016-04-22T07:14:40Z</time>
      </trkpt>
      <trkpt lat="48.38487" lon="2.54598">
        <ele>115.7</ele>
        <time>2016-04-22T07:14:40Z</time>
      </trkpt>
      <trkpt lat="48.38534" lon="2.54201">
        <ele>118</ele>
        <time>2016-04-22T07:14:40Z</time>
      </trkpt>
      <trkpt lat="48.3866" lon="2.5378">
        <ele>105.3</ele>
        <time>2016-04-22T07:14:40Z</time>
      </trkpt>
      <trkpt lat="48.38712" lon="2.53728">
        <ele>112.6</ele>
      </trkpt>
      <trkpt lat="48.38691" lon="2.53721">
        <ele>108.7</ele>
        <time>2016-04-22T07:14:40Z</time>
      </trkpt>
      <trkpt lat="48.38695" lon="2.53626">
        <ele>106.2</ele>
      </trkpt>
      <trkpt lat="48.38798" lon="2.53644">
        <ele>118.4</ele>
      </trkpt>
      <trkpt lat="48.38892" lon="2.53757">
        <ele>115.9</ele>
      </trkpt>
      <trkpt lat="48.39089" lon="2.53597">
        <ele>116.9</ele>
      </trkpt>
      <trkpt lat="48.39226" lon="2.53336">
        <ele>126.2</ele>
        <time>2016-04-22T07:14:40Z</time>
      </trkpt>
      <trkpt lat="48.39246" lon="2.53431">
        <ele>127.6</ele>
      </trkpt>
      <trkpt lat="48.39254" lon="2.53561">
        <ele>126.4</ele>
      </trkpt>
      <trkpt lat="48.39252" lon="2.53734">
        <ele>124.1</ele>
      </trkpt>
      <trkpt lat="48.39289" lon="2.53822">
        <ele>122.1</ele>
      </trkpt>
      <trkpt lat="48.39341" lon="2.53828">
        <ele>120.8</ele>
      </trkpt>
      <trkpt lat="48.39395" lon="2.53757">
        <ele>119.3</ele>
      </trkpt>
      <trkpt lat="48.39513" lon="2.53443">
        <ele>120.1</ele>
        <time>2016-04-22T07:14:40Z</time>
      </trkpt>
      <trkpt lat="48.39592" lon="2.53218">
        <ele>120.4</ele>
      </trkpt>
      <trkpt lat="48.39667" lon="2.52495">
        <ele>114.7</ele>
      </trkpt>
      <trkpt lat="48.39702" lon="2.52341">
        <ele>111.5</ele>
      </trkpt>
      <trkpt lat="48.39745" lon="2.52027">
        <ele>94.9</ele>
      </trkpt>
      <trkpt lat="48.39836" lon="2.51909">
        <ele>84.4</ele>
      </trkpt>
      <trkpt lat="48.39974" lon="2.51684">
        <ele>77.9</ele>
      </trkpt>
      <trkpt lat="48.40178" lon="2.52051">
        <ele>83.2</ele>
      </trkpt>
      <trkpt lat="48.40213" lon="2.52358">
        <ele>81.1</ele>
      </trkpt>
      <trkpt lat="48.40288" lon="2.52531">
        <ele>81.4</ele>
      </trkpt>
      <trkpt lat="48.4041" lon="2.52646">
        <ele>85.1</ele>
        <time>2016-04-22T07:14:40Z</time>
      </trkpt>
      <trkpt lat="48.40473" lon="2.5307">
        <ele>94.8</ele>
      </trkpt>
      <trkpt lat="48.40579" lon="2.5304">
        <ele>102.3</ele>
      </trkpt>
      <trkpt lat="48.40551" lon="2.52744">
        <ele>112.7</ele>
      </trkpt>
      <trkpt lat="48.40662" lon="2.52525">
        <ele>113.8</ele>
      </trkpt>
      <trkpt lat="48.40713" lon="2.52389">
        <ele>106.2</ele>
      </trkpt>
      <trkpt lat="48.4074" lon="2.5227">
        <ele>111.9</ele>
      </trkpt>
      <trkpt lat="48.40697" lon="2.52229">
        <ele>104.3</ele>
      </trkpt>
      <trkpt lat="48.40654" lon="2.5214">
        <ele>92.1</ele>
      </trkpt>
      <trkpt lat="48.40673" lon="2.52057">
        <ele>89.9</ele>
      </trkpt>
      <trkpt lat="48.40665" lon="2.51879">
        <ele>84.3</ele>
      </trkpt>
      <trkpt lat="48.40603" lon="2.51814">
        <ele>79.3</ele>
      </trkpt>
      <trkpt lat="48.40666" lon="2.51559">
        <ele>89.5</ele>
      </trkpt>
      <trkpt lat="48.40654" lon="2.51542">
        <ele>86.4</ele>
      </trkpt>
      <trkpt lat="48.40839" lon="2.51293">
        <ele>97.2</ele>
      </trkpt>
      <trkpt lat="48.40905" lon="2.50991">
        <ele>101.7</ele>
      </trkpt>
      <trkpt lat="48.4096" lon="2.50499">
        <ele>93.9</ele>
      </trkpt>
      <trkpt lat="48.40945" lon="2.5031">
        <ele>85.9</ele>
      </trkpt>
      <trkpt lat="48.41015" lon="2.49931">
        <ele>86.8</ele>
      </trkpt>
      <trkpt lat="48.41212" lon="2.4983">
        <ele>97.4</ele>
      </trkpt>
      <trkpt lat="48.41432" lon="2.49966">
        <ele>111.5</ele>
      </trkpt>
      <trkpt lat="48.41507" lon="2.50683">
        <ele>131.1</ele>
      </trkpt>
      <trkpt lat="48.41475" lon="2.50813">
        <ele>129.7</ele>
      </trkpt>
      <trkpt lat="48.4157" lon="2.50831">
        <ele>132.7</ele>
      </trkpt>
      <trkpt lat="48.41613" lon="2.5063">
        <ele>135.7</ele>
      </trkpt>
      <trkpt lat="48.41695" lon="2.50653">
        <ele>136.5</ele>
      </trkpt>
      <trkpt lat="48.41754" lon="2.50209">
        <ele>130.1</ele>
        <time>2016-04-22T07:14:40Z</time>
      </trkpt>
    </trkseg>
  </trk>
</gpx>